DW9822 Weather Reports


time (UTC)temp
C
wind
direction
speed
KPH
gust
KPH
rain 1hr
cm
rain 24hr
cm
rain mn
cm
humidity
%
barometer
mb
20260507041032 10 22 0.0 0.0 0.00 0.00 0.18 94 1010.8
20260507040520 10 22 0.0 0.0 0.00 0.00 0.18 93 1010.8
20260507040035 10 22 0.0 0.0 0.00 0.00 0.18 92 1010.8
20260507035521 10 22 0.0 0.0 0.00 0.00 0.18 92 1010.8
20260507035038 10 22 0.0 0.0 0.00 0.00 0.18 92 1010.8
20260507034533 10 355 0.0 0.0 0.00 0.00 0.18 92 1010.7
20260507034023 10 5 0.0 0.0 0.00 0.00 0.18 92 1010.8
20260507033535 10 355 0.0 0.0 0.00 0.00 0.18 92 1010.7
20260507033022 10 355 0.0 0.0 0.00 0.00 0.18 91 1010.8
20260507032037 11 327 0.0 0.0 0.00 0.00 0.15 89 1010.7
20260507031529 10 335 0.0 0.0 0.00 0.00 0.08 86 1010.8
20260507031028 10 341 0.0 0.0 0.00 0.00 0.05 88 1010.8
20260507030520 10 333 0.0 0.0 0.00 0.00 0.05 88 1010.7
20260507030035 10 338 0.0 0.0 0.00 0.00 0.05 89 1010.8
20260507025029 10 327 0.0 0.0 0.00 0.00 0.05 91 1010.7
20260507024023 10 343 0.0 0.0 0.00 0.00 0.05 92 1010.8
20260507023537 10 343 0.0 0.0 0.00 0.00 0.05 92 1010.8
20260507023027 10 340 0.0 0.0 0.00 0.00 0.05 92 1010.8
20260507022535 10 21 0.0 0.0 0.00 0.00 0.05 92 1010.8
20260507022022 10 94 0.0 0.0 0.00 0.00 0.05 93 1010.8
20260507021529 10 94 0.0 0.0 0.00 0.00 0.05 93 1010.9
20260507021034 10 94 0.0 0.0 0.00 0.00 0.05 93 1010.9
20260507020520 10 101 0.0 0.0 0.00 0.00 0.05 93 1011.0
20260507020025 10 101 0.0 0.0 0.00 0.00 0.05 94 1010.9
20260507015539 10 301 0.0 0.0 0.00 0.00 0.05 94 1010.9
20260507015032 10 300 0.0 0.0 0.00 0.00 0.05 95 1010.8
20260507014519 10 300 0.0 0.0 0.00 0.00 0.05 95 1010.7
20260507013526 10 12 0.0 0.0 0.00 0.00 0.05 94 1010.6
20260507013029 10 12 0.0 0.0 0.00 0.00 0.05 94 1010.5
20260507012523 10 12 0.0 0.0 0.00 0.00 0.05 94 1010.5
20260507012030 10 12 0.0 0.0 0.00 0.00 0.05 93 1010.5
20260507011521 10 12 0.0 0.0 0.00 0.00 0.05 93 1010.4
20260507011026 10 12 0.0 0.0 0.00 0.00 0.05 93 1010.4
20260507010554 10 12 0.0 0.0 0.00 0.00 0.05 93 1010.4
20260507010027 11 12 0.0 0.0 0.00 0.00 0.05 92 1010.3
20260507005529 11 12 0.0 0.0 0.00 0.00 0.05 92 1010.2
20260507004536 11 12 0.0 0.0 0.00 0.00 0.05 91 1010.3
20260507004037 11 12 0.0 0.0 0.00 0.00 0.05 90 1010.2
20260507003041 11 12 0.0 0.0 0.00 0.00 0.03 90 1010.2
20260507002527 11 12 0.0 0.0 0.00 0.00 0.03 91 1010.3
20260507002026 11 12 0.0 0.0 0.00 0.00 0.03 89 1010.3
20260507001531 11 12 0.0 0.0 0.00 0.00 0.00 88 1010.2
20260507001026 11 12 0.0 0.0 0.00 0.00 0.00 86 1010.3
20260507000531 11 12 0.0 0.0 0.00 0.00 0.00 87 1010.3
20260507000030 11 342 0.0 0.0 0.00 0.00 0.00 89 1010.3
20260506235035 10 303 0.0 0.0 0.00 0.00 0.00 93 1010.4
20260506234527 10 310 0.0 0.0 0.00 0.00 0.00 94 1010.4
20260506234026 10 293 0.0 0.0 0.00 0.00 0.00 94 1010.4
20260506233537 10 293 0.0 0.0 0.00 0.00 0.00 94 1010.4
20260506232525 11 293 0.0 0.0 0.00 0.00 0.00 94 1010.4
20260506231528 11 293 0.0 0.0 0.00 0.00 0.00 93 1010.3
20260506231033 11 293 0.0 0.0 0.00 0.00 0.00 93 1010.3
20260506230537 11 293 0.0 0.0 0.00 0.00 0.00 92 1010.3
20260506230028 11 294 0.0 0.0 0.00 0.00 0.00 92 1010.2
20260506225020 11 293 0.0 0.0 0.00 0.00 0.00 91 1010.1
20260506223544 11 293 0.0 0.0 0.00 0.00 0.00 91 1010.1
20260506223026 11 317 0.0 0.0 0.00 0.00 0.00 92 1010.1
20260506222538 10 40 0.0 0.0 0.00 0.00 0.00 93 1010.1
20260506221524 10 9 0.0 0.0 0.00 0.00 0.00 95 1010.1
20260506221033 10 12 0.0 0.0 0.00 0.00 0.00 95 1010.1
20260506220526 10 12 0.0 0.0 0.00 0.00 0.00 95 1010.1
20260506215538 10 12 0.0 0.0 0.00 0.00 3.81 95 1010.0
20260506215028 10 12 0.0 0.0 0.00 0.00 3.81 95 1010.0
20260506214535 10 12 0.0 0.0 0.00 0.00 3.81 95 1010.0
20260506214028 10 12 0.0 0.0 0.00 0.00 3.81 94 1010.0
20260506213521 10 12 0.0 0.0 0.00 0.00 3.81 94 1009.9
20260506213039 10 12 0.0 0.0 0.00 0.00 3.81 94 1009.9
20260506212523 10 12 0.0 0.0 0.00 0.00 3.81 93 1009.9
20260506212045 11 56 0.0 0.0 0.00 0.00 3.81 93 1010.0
20260506211025 11 56 0.0 0.0 0.00 0.00 3.81 93 1009.8
20260506210537 11 56 0.0 0.0 0.00 0.00 3.81 93 1009.8
20260506210043 11 56 0.0 0.0 0.00 0.00 3.81 92 1009.7
20260506205528 11 56 0.0 0.0 0.00 0.00 3.81 92 1009.7
20260506205033 11 56 0.0 0.0 0.00 0.00 3.81 92 1009.7
20260506204538 11 55 0.0 0.0 0.00 0.00 3.81 91 1009.7
20260506204038 11 302 0.0 0.0 0.00 0.00 3.81 93 1009.7
20260506203529 11 302 0.0 0.0 0.00 0.00 3.81 92 1009.7
20260506203028 11 302 0.0 0.0 0.00 0.00 3.81 93 1009.7
20260506202534 11 302 0.0 0.0 0.00 0.00 3.81 93 1009.6
20260506201526 11 302 0.0 0.0 0.00 0.00 3.81 91 1009.6
20260506201037 11 302 0.0 0.0 0.00 0.00 3.81 92 1009.6
20260506200528 11 302 0.0 0.0 0.00 0.00 3.81 92 1009.5
20260506200020 11 302 0.0 0.0 0.00 0.00 3.81 92 1009.5
20260506195028 11 296 0.0 0.0 0.00 0.00 3.81 91 1009.4
20260506194533 11 317 0.0 0.0 0.00 0.00 3.81 90 1009.5
20260506194041 11 5 0.0 0.0 0.00 0.00 3.81 89 1009.3
20260506193530 11 234 0.0 0.0 0.00 0.00 3.81 89 1008.9
20260506193022 11 180 0.0 0.0 0.00 0.00 3.81 89 1008.8
20260506192034 11 86 1.6 0.0 0.00 0.00 3.81 88 1008.7
20260506191530 11 42 1.6 0.0 0.00 0.00 3.81 88 1008.7
20260506191023 11 342 0.0 0.0 0.00 0.00 3.81 89 1008.9
20260506190527 11 307 1.6 0.0 0.00 0.00 3.81 89 1008.9
20260506190036 11 5 1.6 0.0 0.00 0.00 3.81 87 1008.9
20260506185538 11 333 1.6 0.0 0.00 0.00 3.81 88 1009.0
20260506185038 11 325 4.8 0.0 0.00 0.00 3.81 88 1009.0
20260506184535 12 324 8.0 0.0 0.00 0.00 3.81 90 1009.1
20260506183028 11 229 0.0 0.0 0.00 0.00 3.81 95 1008.4
20260506182551 11 228 0.0 0.0 0.00 0.00 3.81 95 1008.1
20260506182021 11 194 0.0 0.0 0.00 0.00 3.81 95 1008.1
20260506181529 11 51 0.0 0.0 0.00 0.00 3.81 95 1007.9
20260506181036 11 51 0.0 0.0 0.00 0.00 3.81 95 1007.9
20260506180524 11 51 0.0 0.0 0.00 0.00 3.81 95 1007.7
20260506180031 11 51 0.0 0.0 0.00 0.00 3.81 95 1007.7
20260506175521 11 51 0.0 0.0 0.00 0.00 3.81 96 1007.6
20260506175036 11 51 0.0 0.0 0.00 0.00 3.81 95 1007.5
20260506174533 12 51 0.0 0.0 0.00 0.00 3.81 95 1007.5
20260506174032 12 51 0.0 0.0 0.00 0.00 3.81 95 1007.4
20260506173532 12 51 0.0 0.0 0.00 0.00 3.81 95 1007.4
20260506172536 11 51 0.0 0.0 0.00 0.00 3.81 94 1007.3
20260506172024 12 316 0.0 0.0 0.00 0.00 3.81 94 1007.2
20260506171538 12 316 0.0 0.0 0.00 0.00 3.81 93 1007.2
20260506171024 12 80 0.0 0.0 0.00 0.00 3.81 93 1007.2
20260506170534 12 80 0.0 0.0 0.00 0.00 3.81 92 1007.1
20260506170024 12 80 0.0 0.0 0.00 0.00 3.81 92 1007.1
20260506165531 12 80 0.0 0.0 0.00 0.00 3.81 91 1007.0
20260506164523 13 9 0.0 0.0 0.00 0.00 3.81 90 1007.1
20260506164029 13 9 0.0 0.0 0.00 0.00 3.81 89 1007.1
20260506163529 13 9 0.0 0.0 0.00 0.00 3.81 90 1007.0
20260506162526 13 130 1.6 0.0 0.00 0.00 3.81 91 1006.9
20260506162056 13 132 1.6 0.0 0.00 0.00 3.81 92 1006.7
20260506161523 12 115 1.6 0.0 0.00 0.00 3.81 91 1006.5
20260506160539 12 331 4.8 0.0 0.00 0.00 3.81 92 1006.2
20260506160022 12 88 3.2 0.0 0.00 0.00 3.81 92 1006.2
20260506155035 11 92 1.6 0.0 0.00 0.00 3.81 93 1006.2
20260506154033 11 315 3.2 0.0 0.00 0.00 3.81 94 1006.1
20260506153536 10 11 1.6 0.0 0.00 0.00 3.81 94 1006.1
20260506152520 10 296 3.2 0.0 0.00 0.00 3.61 91 1006.4
20260506152023 11 49 8.0 0.0 0.00 0.00 3.30 89 1006.9
20260506151527 11 343 12.9 0.0 0.00 0.00 2.57 90 1007.0
20260506151032 12 15 12.9 0.0 0.00 0.00 2.31 89 1006.7
20260506150536 13 313 8.0 0.0 0.00 0.00 2.13 88 1006.7
20260506145534 15 287 4.8 0.0 0.00 0.00 1.73 84 1006.9
20260506145027 16 308 6.4 0.0 0.00 0.00 1.57 80 1006.7
20260506144027 17 107 6.4 0.0 0.00 0.00 1.55 82 1006.0
20260506143534 17 85 4.8 0.0 0.00 0.00 1.55 82 1005.6
20260506143022 17 96 3.2 0.0 0.00 0.00 1.55 83 1005.9
20260506142535 17 202 1.6 0.0 0.00 0.00 1.55 82 1006.1
20260506142028 17 207 1.6 0.0 0.00 0.00 1.55 81 1006.2
20260506141519 17 115 4.8 0.0 0.00 0.00 1.55 80 1005.9
20260506141032 18 138 6.4 0.0 0.00 0.00 1.55 79 1005.9
20260506140026 17 94 6.4 0.0 0.00 0.00 1.55 83 1006.3
20260506135534 17 92 6.4 0.0 0.00 0.00 1.55 83 1006.3
20260506135025 17 80 6.4 0.0 0.00 0.00 1.55 84 1006.3
20260506134528 16 112 6.4 0.0 0.00 0.00 1.55 85 1006.6
20260506134034 16 115 8.0 0.0 0.00 0.00 1.55 84 1006.6
20260506133035 17 105 6.4 0.0 0.00 0.00 1.55 83 1006.9
20260506131536 17 92 6.4 0.0 0.00 0.00 1.55 84 1007.0
20260506131032 17 66 8.0 0.0 0.00 0.00 1.55 85 1007.2
20260506130535 17 64 8.0 0.0 0.00 0.00 1.55 86 1007.2
20260506130024 16 81 8.0 0.0 0.00 0.00 1.55 88 1007.2
20260506125527 16 74 8.0 0.0 0.00 0.00 1.55 86 1007.1
20260506125035 16 61 8.0 0.0 0.00 0.00 1.55 88 1007.2
20260506124521 16 96 8.0 0.0 0.00 0.00 1.55 88 1007.2
20260506124022 16 94 6.4 0.0 0.00 0.00 1.55 91 1007.3
20260506123529 16 49 4.8 0.0 0.00 0.00 1.55 92 1007.2
20260506123038 15 67 4.8 0.0 0.00 0.00 1.55 96 1007.2
20260506122524 15 192 6.4 0.0 0.00 0.00 1.55 95 1007.2
20260506122031 14 87 6.4 0.0 0.00 0.00 1.55 94 1007.2
20260506121054 14 79 6.4 0.0 0.00 0.00 1.55 93 1007.3
20260506120536 14 84 6.4 0.0 0.00 0.00 1.55 92 1007.5
20260506120030 15 119 6.4 0.0 0.00 0.00 1.47 92 1007.6
20260506115533 15 83 8.0 0.0 0.00 0.00 1.47 90 1007.7
20260506115019 15 111 8.0 0.0 0.00 0.00 1.42 88 1007.3
20260506114527 16 83 8.0 0.0 0.00 0.00 1.42 85 1007.4
20260506114031 16 83 8.0 0.0 0.00 0.00 1.42 86 1007.5
20260506113521 16 160 6.4 0.0 0.00 0.00 1.42 88 1007.6
20260506113027 15 97 6.4 0.0 0.00 0.00 1.42 89 1007.6
20260506112022 15 194 8.0 0.0 0.00 0.00 1.42 90 1007.7
20260506111027 15 88 9.7 0.0 0.00 0.00 1.42 89 1007.1
20260506110541 15 94 9.7 0.0 0.00 0.00 1.42 88 1007.5
20260506110022 15 94 8.0 0.0 0.00 0.00 1.42 87 1007.6
20260506105526 15 73 8.0 0.0 0.00 0.00 1.42 87 1007.7
20260506105027 15 81 9.7 0.0 0.00 0.00 1.42 86 1007.8
20260506104029 15 110 11.3 0.0 0.00 0.00 1.42 86 1007.9
20260506103534 16 88 9.7 0.0 0.00 0.00 1.42 86 1007.9
20260506101524 15 144 6.4 0.0 0.00 0.00 1.42 88 1008.1
20260506100032 15 83 8.0 0.0 0.00 0.00 1.42 89 1008.0
20260506095526 15 189 6.4 0.0 0.00 0.00 1.40 92 1008.0
20260506095022 14 96 6.4 0.0 0.00 0.00 1.40 92 1008.0
20260506094526 13 110 4.8 0.0 0.00 0.00 1.40 94 1008.0
20260506094030 13 130 6.4 0.0 0.00 0.00 1.40 94 1007.8
20260506093531 13 78 8.0 0.0 0.00 0.00 1.40 93 1007.8
20260506093035 13 54 6.4 0.0 0.00 0.00 1.40 94 1007.9
20260506092540 13 51 4.8 0.0 0.00 0.00 1.40 95 1007.7
20260506091532 12 101 3.2 0.0 0.00 0.00 1.40 96 1008.0
20260506091029 12 73 1.6 0.0 0.00 0.00 1.40 96 1007.9
20260506085524 12 130 1.6 0.0 0.00 0.00 1.27 96 1008.1
20260506084023 12 198 1.6 0.0 0.00 0.00 1.07 95 1008.0
20260506083530 13 93 3.2 0.0 0.00 0.00 0.97 95 1008.0
20260506083019 13 155 3.2 0.0 0.00 0.00 0.81 95 1008.0
20260506082027 13 106 8.0 0.0 0.00 0.00 0.71 93 1007.8
20260506081529 13 81 4.8 0.0 0.00 0.00 0.71 94 1007.5
20260506080529 13 96 6.4 0.0 0.00 0.00 0.71 95 1007.5
20260506073025 13 88 8.0 0.0 0.00 0.00 0.71 96 1008.0
20260506072536 13 79 8.0 0.0 0.00 0.00 0.71 96 1008.0
20260506072027 12 96 8.0 0.0 0.00 0.00 0.71 97 1007.9
20260506071520 12 84 8.0 0.0 0.00 0.00 0.69 96 1008.0
20260506071111 12 76 8.0 0.0 0.00 0.00 0.69 96 1008.2
20260506070532 12 101 6.4 0.0 0.00 0.00 0.69 96 1008.2
20260506062022 13 85 1.6 0.0 0.00 0.00 0.00 97 1008.2
20260506061528 13 96 3.2 0.0 0.00 0.00 0.00 97 1008.2
20260506060534 13 82 3.2 0.0 0.00 0.00 0.00 97 1008.2
20260506051038 12 80 3.2 0.0 0.00 0.00 0.00 97 1008.5
20260506050525 12 94 1.6 0.0 0.00 0.00 0.00 97 1008.6
20260506045033 12 142 1.6 0.0 0.00 0.00 0.00 97 1008.8
20260506044538 12 186 1.6 0.0 0.00 0.00 0.00 97 1008.8
20260506043535 12 104 1.6 0.0 0.00 0.00 0.00 97 1008.7
20260506043021 12 152 1.6 0.0 0.00 0.00 0.00 97 1008.8
20260506042536 12 128 1.6 0.0 0.00 0.00 0.00 97 1008.9
20260506041544 12 89 0.0 0.0 0.00 0.00 0.00 97 1008.9